Preview of NWS' New Version of Forecast
This preview is not operational and should not be used for support decisions.

Regional Weather Roundup (RWR)

Issued by National Weather Service (NWS)

                            
000
ASUS45 KCYS 231310
RWRWY 

WYOMING REGIONAL WEATHER ROUNDUP
NATIONAL WEATHER SERVICE CHEYENNE WY
700 AM MDT FRI AUG 23 2019

NOTE:  "FAIR" INDICATES FEW OR NO CLOUDS BELOW 12,000 FEET
WITH NO SIGNIFICANT WEATHER AND/OR OBSTRUCTIONS TO VISIBILITY.

WYZ001-231400-
YELLOWSTONE NATIONAL PARK
  
CITY           SKY/WX    TMP DP  RH WIND       PRES   REMARKS
LK YELLOWSTONE   N/A     36  35  96 CALM      30.20R                  
W YELLOWSTONE  NOT AVBL                                               

$$
WYZ002>013-054>058-071-098>099-231400-
NORTHERN WYOMING
  
CITY           SKY/WX    TMP DP  RH WIND       PRES   REMARKS
JACKSON        FAIR      43  36  76 CALM      30.13R                  
CODY           MOCLDY    57  47  69 N7        30.07F                  
GREYBULL       FAIR      62  49  62 W3        29.99R                  
WORLAND        FAIR      56  51  84 SW5       30.01R                  
SHERIDAN       LGT RAIN  61  55  81 NW6       30.02S                  
BUFFALO        CLOUDY    59  52  77 NW8       30.07R                  
GILLETTE       FAIR      58  57  97 NW8       30.02R                  
HULETT         CLOUDY    61  59  94 N3        30.01  VSB 1/2          
NEWCASTLE      FAIR      59  54  82 CALM      30.00                   

$$
WYZ014>020-022>026-101>103-231400-
CENTRAL WYOMING
  
CITY           SKY/WX    TMP DP  RH WIND       PRES   REMARKS
BIG PINEY      FAIR      43  33  68 NE3       30.13R                  
PINEDALE       FAIR      37  32  81 NW8       30.13  WCI  31          
DUBOIS         FAIR      41  32  70 W12       30.13                   
LANDER         MOCLDY    62  47  57 S3        30.05R                  
RIVERTON       FAIR      58  46  64 E6        30.05R                  
CASPER         CLOUDY    61  52  72 N14       30.06R                  
DOUGLAS        CLOUDY    62  57  83 NW14      30.01R                  

$$
WYZ021-027>030-104>119-231400-
SOUTHERN WYOMING
  
CITY           SKY/WX    TMP DP  RH WIND       PRES   REMARKS
EVANSTON       FAIR      52  37  56 CALM      30.14R                  
KEMMERER       FAIR      46  37  71 CALM      30.14                   
ROCK SPRINGS   MOCLDY    59  31  34 E7        30.08F                  
RAWLINS        FAIR      54  38  54 NW5       30.08S                  
SARATOGA       FAIR      63  32  31 SE10      30.11R                  
LARAMIE        FAIR      58  35  42 SE9       30.12S                  
CHEYENNE       FAIR      60  47  61 S7        30.05R                  
TORRINGTON     FAIR      63  62  97 E9        29.94R                  
PINE BLUFFS    FAIR      61  54  77 S12       30.01R                  

$$